Location: Unspecified
(0.0000°N, 0.0000°E)
Time: 14:38:00
(UTC+02:00)

Resurs 01 Rocket - Visible Passes

Search period start: 25 May 2017 00:00
Search period end: 04 June 2017 00:00
Orbit: 634 x 645 km, 98.2° (Epoch: 24 May)

Date Brightness Start Highest point End Pass type
(mag) Time Alt. Az. Time Alt. Az. Time Alt. Az.
25 May 2.7 22:02:12 41° NNW 22:02:12 41° NNW 22:05:07 10° NNW visible
26 May 3.7 22:25:47 25° WNW 22:25:47 25° WNW 22:28:01 10° NW visible
27 May 3.2 21:11:48 19° ENE 21:11:48 19° ENE 21:14:18 10° NNE visible
27 May 4.6 22:49:22 13° WNW 22:49:22 13° WNW 22:50:10 10° WNW visible
28 May 2.5 21:35:22 36° NE 21:35:22 36° NE 21:38:29 10° N visible
29 May 2.5 21:58:57 45° NNW 21:58:57 45° NNW 22:02:01 10° NNW visible
30 May 3.5 22:22:32 28° NW 22:22:32 28° NW 22:25:01 10° NNW visible
31 May 3.2 21:08:32 18° ENE 21:08:32 18° ENE 21:10:57 10° NE visible
31 May 4.5 22:46:07 15° WNW 22:46:07 15° WNW 22:47:18 10° WNW visible
01 Jun 2.5 21:32:08 33° NE 21:32:08 33° NE 21:35:18 10° N visible
02 Jun 2.3 21:55:42 48° N 21:55:42 48° N 21:58:54 10° N visible
03 Jun 3.3 22:19:18 32° NW 22:19:18 32° NW 22:21:59 10° NNW visible
